• In Hungary
  • List of Countries
  • For 7 days
  • Water Temperature
  • Satellite Maps
  • Weather Map
  • News
  • Weather Widgets
  • user-avatar
    Login

    Hourly Weather Harrisburg

    Today, 22 October, Sunday

    Time Temperature Precipitation Wind Pressure Humidity
    00:00 +13°C° 0 mm 1 mps 761 mmHg 60%
    01:00 +11°C° 0 mm 0 mps 761 mmHg 63%
    02:00 +11°C° 0 mm 0 mps 761 mmHg 65%
    03:00 +11°C° 0 mm 0 mps 761 mmHg 67%
    04:00 +11°C° 0 mm 0 mps 761 mmHg 68%
    05:00 +11°C° 0 mm 0 mps 761 mmHg 70%
    06:00 +11°C° 0 mm 0 mps 761 mmHg 71%
    07:00 +11°C° 0 mm 0 mps 762 mmHg 73%
    08:00 +14°C° 0 mm 1 mps 762 mmHg 67%
    09:00 +18°C° 0 mm 1 mps 762 mmHg 61%
    10:00 +20°C° 0 mm 1 mps 762 mmHg 55%
    11:00 +21°C° 0 mm 2 mps 761 mmHg 53%
    12:00 +23°C° 0 mm 2 mps 761 mmHg 51%
    13:00 +24°C° 0 mm 3 mps 760 mmHg 50%
    14:00 +22°C° 0 mm 3 mps 760 mmHg 53%
    15:00 +22°C° 0 mm 3 mps 760 mmHg 56%
    16:00 +21°C° 0 mm 3 mps 759 mmHg 60%
    17:00 +20°C° 0 mm 2 mps 760 mmHg 65%
    18:00 +18°C° 0 mm 2 mps 760 mmHg 70%
    19:00 +16°C° 0 mm 2 mps 760 mmHg 75%
    20:00 +15°C° 0 mm 2 mps 760 mmHg 78%
    21:00 +15°C° 0 mm 2 mps 760 mmHg 82%
    22:00 +14°C° 0 mm 2 mps 760 mmHg 85%
    23:00 +14°C° 0 mm 2 mps 760 mmHg 88%

    Tomorrow, 23 October, Monday

    Time Temperature Precipitation Wind Pressure Humidity
    00:00 +14°C° 0 mm 2 mps 759 mmHg 92%
    01:00 +14°C° 0 mm 2 mps 759 mmHg 95%
    02:00 +14°C° 0 mm 2 mps 759 mmHg 96%
    03:00 +14°C° 0 mm 2 mps 759 mmHg 96%
    04:00 +14°C° 0 mm 2 mps 758 mmHg 97%
    05:00 +14°C° 0 mm 2 mps 758 mmHg 97%
    06:00 +14°C° 0 mm 2 mps 758 mmHg 98%
    07:00 +15°C° 0 mm 2 mps 758 mmHg 98%
    08:00 +17°C° 0 mm 3 mps 757 mmHg 92%
    09:00 +19°C° 0 mm 4 mps 757 mmHg 86%
    10:00 +20°C° 0 mm 5 mps 757 mmHg 80%
    11:00 +21°C° 0 mm 5 mps 756 mmHg 75%
    12:00 +22°C° 0 mm 5 mps 755 mmHg 71%
    13:00 +23°C° 0 mm 6 mps 754 mmHg 66%
    14:00 +22°C° 0 mm 6 mps 753 mmHg 68%
    15:00 +22°C° 0 mm 5 mps 753 mmHg 69%
    16:00 +22°C° 0 mm 5 mps 752 mmHg 70%
    17:00 +21°C° 0 mm 5 mps 752 mmHg 72%
    18:00 +21°C° 0 mm 5 mps 751 mmHg 74%
    19:00 +20°C° 0 mm 5 mps 751 mmHg 77%
    20:00 +20°C° 0.1 mm 5 mps 751 mmHg 78%
    21:00 +20°C° 0.1 mm 6 mps 750 mmHg 79%
    22:00 +20°C° 0.1 mm 6 mps 749 mmHg 81%
    23:00 +20°C° 1.3 mm 6 mps 749 mmHg 84%

    Day after tomorrow, 24 October, Tuesday

    Time Temperature Precipitation Wind Pressure Humidity
    00:00 +20°C° 1.3 mm 7 mps 748 mmHg 87%
    01:00 +20°C° 1.3 mm 7 mps 748 mmHg 90%
    02:00 +20°C° 3.9 mm 6 mps 747 mmHg 91%
    03:00 +20°C° 3.9 mm 6 mps 746 mmHg 93%
    04:00 +20°C° 3.9 mm 6 mps 746 mmHg 94%
    05:00 +20°C° 3 mm 6 mps 745 mmHg 94%
    06:00 +20°C° 3 mm 6 mps 745 mmHg 93%
    07:00 +20°C° 3 mm 6 mps 744 mmHg 92%
    08:00 +20°C° 0.5 mm 5 mps 745 mmHg 91%
    09:00 +19°C° 0.5 mm 4 mps 745 mmHg 90%
    10:00 +19°C° 0.5 mm 3 mps 745 mmHg 89%
    11:00 +19°C° 0.1 mm 3 mps 745 mmHg 86%
    12:00 +18°C° 0.1 mm 3 mps 745 mmHg 83%
    13:00 +18°C° 0.1 mm 2 mps 745 mmHg 79%
    14:00 +18°C° 0 mm 2 mps 744 mmHg 78%
    15:00 +19°C° 0 mm 1 mps 744 mmHg 77%
    16:00 +18°C° 0 mm 1 mps 744 mmHg 76%
    17:00 +18°C° 0 mm 1 mps 745 mmHg 77%
    18:00 +16°C° 0 mm 1 mps 745 mmHg 78%
    19:00 +15°C° 0 mm 1 mps 745 mmHg 79%
    20:00 +14°C° 0 mm 1 mps 746 mmHg 79%
    21:00 +14°C° 0 mm 2 mps 746 mmHg 80%
    22:00 +13°C° 0 mm 2 mps 746 mmHg 80%
    23:00 +13°C° 0 mm 2 mps 746 mmHg 78%

    25 October, Wednesday

    Time Temperature Precipitation Wind Pressure Humidity
    00:00 +13°C° 0 mm 2 mps 746 mmHg 75%
    01:00 +13°C° 0 mm 2 mps 747 mmHg 72%
    02:00 +12°C° 0 mm 2 mps 747 mmHg 74%
    03:00 +10°C° 0 mm 2 mps 747 mmHg 76%
    04:00 +9°C° 0 mm 2 mps 746 mmHg 77%
    05:00 +9°C° 0 mm 2 mps 747 mmHg 79%
    06:00 +8°C° 0 mm 2 mps 747 mmHg 81%
    07:00 +7°C° 0 mm 2 mps 747 mmHg 83%
    08:00 +9°C° 0 mm 2 mps 747 mmHg 77%
    09:00 +12°C° 0 mm 2 mps 747 mmHg 70%
    10:00 +12°C° 0 mm 3 mps 747 mmHg 63%
    11:00 +13°C° 0 mm 3 mps 746 mmHg 58%
    12:00 +15°C° 0 mm 2 mps 745 mmHg 54%
    13:00 +16°C° 0 mm 2 mps 745 mmHg 49%
    14:00 +15°C° 0 mm 2 mps 745 mmHg 51%
    15:00 +15°C° 0 mm 2 mps 744 mmHg 53%
    16:00 +15°C° 0 mm 2 mps 744 mmHg 55%
    17:00 +13°C° 0 mm 2 mps 745 mmHg 58%
    18:00 +12°C° 0 mm 2 mps 745 mmHg 60%
    19:00 +9°C° 0 mm 2 mps 746 mmHg 62%
    20:00 +8°C° 0 mm 2 mps 746 mmHg 66%
    21:00 +8°C° 0 mm 2 mps 746 mmHg 70%
    22:00 +7°C° 0 mm 2 mps 746 mmHg 73%
    23:00 +6°C° 0 mm 2 mps 746 mmHg 77%

    26 October, Thursday

    Time Temperature Precipitation Wind Pressure Humidity
    00:00 +6°C° 0 mm 2 mps 746 mmHg 80%
    01:00 +6°C° 0 mm 2 mps 746 mmHg 83%
    02:00 +6°C° 0 mm 2 mps 746 mmHg 85%
    03:00 +5°C° 0 mm 2 mps 746 mmHg 87%
    04:00 +5°C° 0 mm 2 mps 746 mmHg 89%
    05:00 +5°C° 0 mm 2 mps 747 mmHg 89%
    06:00 +5°C° 0 mm 2 mps 748 mmHg 89%
    07:00 +5°C° 0 mm 2 mps 748 mmHg 89%
    08:00 +7°C° 0 mm 2 mps 748 mmHg 80%
    09:00 +9°C° 0 mm 3 mps 749 mmHg 71%
    10:00 +11°C° 0 mm 4 mps 749 mmHg 61%
    11:00 +11°C° 0 mm 4 mps 749 mmHg 59%
    12:00 +12°C° 0 mm 4 mps 749 mmHg 56%
    13:00 +13°C° 0 mm 4 mps 749 mmHg 53%
    14:00 +13°C° 0 mm 3 mps 749 mmHg 55%
    15:00 +14°C° 0 mm 2 mps 750 mmHg 56%
    16:00 +14°C° 0 mm 2 mps 750 mmHg 58%
    17:00 +12°C° 0 mm 1 mps 751 mmHg 63%
    18:00 +10°C° 0 mm 1 mps 751 mmHg 68%
    19:00 +9°C° 0 mm 1 mps 752 mmHg 73%
    20:00 +8°C° 0 mm 1 mps 752 mmHg 74%
    21:00 +8°C° 0 mm 1 mps 753 mmHg 75%
    22:00 +8°C° 0 mm 1 mps 753 mmHg 77%
    23:00 +7°C° 0 mm 1 mps 753 mmHg 78%

    27 October, Friday

    Time Temperature Precipitation Wind Pressure Humidity
    00:00 +7°C° 0 mm 1 mps 753 mmHg 79%
    01:00 +7°C° 0 mm 1 mps 753 mmHg 81%
    02:00 +7°C° 0 mm 1 mps 753 mmHg 81%
    03:00 +7°C° 0 mm 1 mps 753 mmHg 82%
    04:00 +7°C° 0 mm 1 mps 753 mmHg 83%
    05:00 +7°C° 0 mm 1 mps 754 mmHg 84%
    06:00 +7°C° 0 mm 1 mps 754 mmHg 85%
    07:00 +7°C° 0 mm 1 mps 754 mmHg 86%
    08:00 +9°C° 0 mm 1 mps 754 mmHg 80%
    09:00 +12°C° 0 mm 2 mps 754 mmHg 73%
    10:00 +14°C° 0 mm 2 mps 754 mmHg 66%
    11:00 +16°C° 0 mm 3 mps 754 mmHg 64%
    12:00 +17°C° 0 mm 3 mps 753 mmHg 62%
    13:00 +19°C° 0 mm 3 mps 753 mmHg 60%
    14:00 +19°C° 0 mm 3 mps 753 mmHg 63%
    15:00 +19°C° 0 mm 3 mps 753 mmHg 66%
    16:00 +19°C° 0 mm 2 mps 753 mmHg 68%
    17:00 +17°C° 0 mm 2 mps 753 mmHg 75%
    18:00 +15°C° 0 mm 2 mps 753 mmHg 81%
    19:00 +13°C° 0 mm 2 mps 754 mmHg 87%
    20:00 +13°C° 0 mm 2 mps 754 mmHg 88%
    21:00 +12°C° 0 mm 2 mps 754 mmHg 90%
    22:00 +12°C° 0 mm 2 mps 754 mmHg 92%
    23:00 +12°C° 0 mm 1 mps 754 mmHg 92%
    Show more